Simultaneous Nadir Overpasses (SNOs) Predictions

Prediction of SNOs between METOP-A and TERRA Satellite Orbit:

Table of predicted SNOs for the next 14.0 days since TLE Epoch: 6/23/2017
Index Date (METOP-A) Time (METOP-A) Lat,Lon (METOP-A) SZA (METOP-A ) Date (TERRA) Time (TERRA) Lat,Lon (TERRA) SZA (TERRA ) Distance(km) Time Diff (sec)
1 06/25/2017 09:26:33 81.34, 86.06 60.87 06/25/2017 09:27:43 81.34, 86.13 60.91 1.23 70
2 06/25/2017 10:17:13 -81.34,-106.43 119.12 06/25/2017 10:17:10 -81.34,-106.24 119.10 3.13 3
3 06/28/2017 05:00:54 81.34, 152.47 60.96 06/28/2017 05:01:58 81.34, 152.47 60.98 0.36 64
4 06/28/2017 05:51:33 -81.34, -39.99 119.02 06/28/2017 05:51:24 -81.34, -39.89 119.02 1.79 9
5 07/01/2017 00:35:13 81.35,-140.75 61.15 07/01/2017 00:36:11 81.35,-140.86 61.16 1.90 58
6 07/01/2017 01:25:53 -81.35, 26.83 118.83 07/01/2017 01:25:38 -81.35, 26.80 118.84 0.62 15
7 07/03/2017 20:09:35 81.34, -74.78 61.29 07/03/2017 20:10:26 81.34, -74.63 61.33 2.65 51
8 07/03/2017 21:00:14 -81.35, 93.23 118.63 07/03/2017 20:59:53 -81.34, 93.05 118.66 3.14 21
9 07/06/2017 15:43:55 81.34, -8.05 61.58 07/06/2017 15:44:40 81.35, -8.06 61.60 0.26 45




NCC Satellite Simultaneous Nadir Overpasses (SNOs) Prediction Service
